This is the latest recevied weather packets stored in our database for station/object KN6CW-3. If no packets are shown the sender has not sent any weather packets the latest 10 day(s).
| Time | Temp. | Humidity | Pressure | Rain* | Wind** | Luminosity | Snow |
|---|---|---|---|---|---|---|---|
| 1778064322 | 15.56° C | 80% | 1006.5 hPa | 0 mm | - | 47 W/m² | - |
| 1778064021 | 15.56° C | 80% | 1006.2 hPa | 0 mm | - | 49 W/m² | - |
| 1778063721 | 15.56° C | 80% | 1006.4 hPa | 0 mm | - | 39 W/m² | - |
| 1778063421 | 15.56° C | 80% | 1006.3 hPa | 0 mm | - | 35 W/m² | - |
| 1778063120 | 15.56° C | 79% | 1006.3 hPa | 0 mm | - | 35 W/m² | - |
| 1778062820 | 15.56° C | 79% | 1006.2 hPa | 0 mm | - | 30 W/m² | - |
| 1778062520 | 15° C | 79% | 1006.3 hPa | 0 mm | - | 19 W/m² | - |
| 1778062220 | 15° C | 78% | 1006.2 hPa | 0 mm | - | 12 W/m² | - |
| 1778061919 | 15.56° C | 78% | 1006.2 hPa | 0 mm | - | 7 W/m² | - |
| 1778061619 | 15.56° C | 77% | 1006.2 hPa | 0 mm | - | 0 W/m² | - |
| 1778061319 | 15.56° C | 77% | 1006.2 hPa | 0 mm | - | 0 W/m² | - |
| 1778061018 | 15.56° C | 76% | 1006.5 hPa | 0 mm | - | 0 W/m² | - |
| 1778060718 | 15.56° C | 76% | 1006.5 hPa | 0 mm | - | 0 W/m² | - |
| 1778060418 | 15.56° C | 76% | 1006.6 hPa | 0 mm | - | 0 W/m² | - |
| 1778060118 | 15.56° C | 76% | 1006.5 hPa | 0 mm | - | 0 W/m² | - |
| 1778059817 | 15.56° C | 75% | 1006.5 hPa | 0 mm | - | 0 W/m² | - |
| 1778059517 | 15.56° C | 75% | 1006.4 hPa | 0 mm | - | 0 W/m² | - |
| 1778059217 | 15.56° C | 75% | 1006.5 hPa | 0 mm | - | 0 W/m² | - |
| 1778058916 | 15.56° C | 75% | 1006.6 hPa | 0 mm | - | 0 W/m² | - |
| 1778058616 | 15.56° C | 74% | 1006.6 hPa | 0 mm | - | 0 W/m² | - |
| 1778058316 | 15.56° C | 74% | 1006.6 hPa | 0 mm | - | 0 W/m² | - |
| 1778058016 | 15.56° C | 74% | 1006.7 hPa | 0 mm | - | 0 W/m² | - |
| 1778057715 | 16.11° C | 73% | 1006.5 hPa | 0 mm | - | 0 W/m² | - |
| 1778057415 | 16.11° C | 73% | 1006.6 hPa | 0 mm | - | 0 W/m² | - |
| 1778057115 | 16.11° C | 73% | 1006.8 hPa | 0 mm | - | 0 W/m² | - |
* Rain latest hour (hover to see other rain measurements)
** Current wind speed in m/s (hover to see current wind gust speed)